Stations météo

réclame
Mon MeteoGroup
Pisa/S. Giusto, Italie (16158): Température de l'air & dewpoint: 16.07.2018 14:00:00 - 22.07.2018 14:00:00 (CEST)Pisa/S. Giusto, Italie (16158): Vitesse du vent: 16.07.2018 14:00:00 - 22.07.2018 14:00:00 (CEST)Pisa/S. Giusto, Italie (16158): Direction du vent: 16.07.2018 14:00:00 - 22.07.2018 14:00:00 (CEST)Pisa/S. Giusto, Italie (16158): reduced air pressure: 16.07.2018 14:00:00 - 22.07.2018 14:00:00 (CEST)Pisa/S. Giusto, Italie (16158): visibility: 16.07.2018 14:00:00 - 22.07.2018 14:00:00 (CEST)Pisa/S. Giusto, Italie (16158): Ensoleillement: 16.07.2018 14:00:00 - 22.07.2018 14:00:00 (CEST)
Date & Time tt [°C] td [°C] ff [km/h] ff [knt] dd ppp [hPa] vv [km] sd [min]
22.07.2018 14:00:00 27,0 21,5 21 11 WSW 1011,7 10 24
22.07.2018 13:00:00 27,0 21,0 22 12 W - 10 -
22.07.2018 12:00:00 28,0 21,0 21 11 WSW - 10 -
22.07.2018 11:00:00 22,0 20,3 11 6 ESE 1011,4 10 30
22.07.2018 10:00:00 21,0 20,0 15 8 SE - 10 -
22.07.2018 09:00:00 20,0 19,0 11 6 SE - 10 -
22.07.2018 08:00:00 20,8 20,6 18 10 ESE 1010,6 10 0
22.07.2018 07:00:00 21,0 21,0 5 3 E - 10 -
22.07.2018 06:00:00 20,0 20,0 5 3 SE - 10 -
22.07.2018 05:00:00 19,8 19,8 5 3 E 1010,3 10 -
22.07.2018 04:00:00 20,0 20,0 4 2 SSE - 10 -
22.07.2018 03:00:00 20,0 20,0 5 3 S - 10 -
22.07.2018 02:00:00 22,2 22,2 4 2 - 1010,6 10 -
22.07.2018 01:00:00 22,0 22,0 8 4 W - 10 -
22.07.2018 00:00:00 23,0 23,0 9 5 W - 10 -
21.07.2018 23:00:00 23,8 23,5 4 2 W 1010,5 10 -
21.07.2018 22:00:00 24,0 24,0 2 1 S - 10 -
21.07.2018 21:00:00 25,0 24,0 9 5 SSW - 10 -
21.07.2018 20:00:00 27,0 22,8 16 9 SW 1009,7 10 54
21.07.2018 19:00:00 27,0 23,0 15 8 SSW - 10 -
21.07.2018 18:00:00 28,0 23,0 18 10 SW - 10 -
21.07.2018 17:00:00 29,8 22,5 22 12 WSW 1010,7 10 60
21.07.2018 16:00:00 30,0 22,0 24 13 SSW - 10 -
21.07.2018 15:00:00 29,0 22,0 26 14 SSW - 10 -
21.07.2018 14:00:00 28,0 21,6 28 15 SSW 1011,2 10 18
21.07.2018 13:00:00 28,0 20,0 15 8 SE - 10 -
21.07.2018 12:00:00 28,0 20,0 13 7 ESE - 10 -
21.07.2018 11:00:00 27,0 17,8 16 9 SSE 1011,7 10 60
21.07.2018 10:00:00 27,0 19,0 11 6 SSE - 10 -
21.07.2018 09:00:00 25,0 18,0 5 3 E - 10 -
21.07.2018 08:00:00 21,4 18,2 15 8 ESE 1010,9 10 42
21.07.2018 07:00:00 20,0 17,0 11 6 ESE - 10 -
21.07.2018 06:00:00 19,0 18,0 11 6 ESE - 10 -
21.07.2018 05:00:00 19,8 19,1 5 3 - 1011,8 10 -
21.07.2018 04:00:00 19,0 19,0 11 6 ENE - 10 -
21.07.2018 03:00:00 20,0 20,0 8 4 E - 10 -
21.07.2018 02:00:00 20,0 20,0 8 4 SE 1012,7 10 -
21.07.2018 01:00:00 21,0 20,0 8 4 SE - 10 -
21.07.2018 00:00:00 22,0 21,0 4 2 - - 10 -
20.07.2018 23:00:00 23,4 21,5 4 2 SSE 1013,3 10 -
20.07.2018 22:00:00 24,0 22,0 5 3 WNW - 10 -
20.07.2018 21:00:00 24,0 22,0 5 3 W - 10 -
20.07.2018 20:00:00 26,4 21,4 9 5 NW 1012,8 10 60
20.07.2018 19:00:00 27,0 21,0 11 6 W - 10 -
20.07.2018 18:00:00 27,0 21,0 16 9 W - 10 -
20.07.2018 17:00:00 28,4 17,9 18 10 W 1013,8 10 60
20.07.2018 16:00:00 29,0 17,0 18 10 W - 10 -
20.07.2018 15:00:00 28,0 20,0 24 13 W - 10 -
20.07.2018 14:00:00 28,4 20,2 22 12 W 1014,7 10 60
20.07.2018 13:00:00 28,0 21,0 21 11 WSW - 10 -
20.07.2018 12:00:00 28,0 22,0 16 9 W - 10 -
20.07.2018 11:00:00 26,0 21,9 8 4 W 1014,7 10 60
20.07.2018 10:00:00 25,0 21,0 9 5 - - 10 -
20.07.2018 09:00:00 22,0 20,0 11 6 SE - 10 -
20.07.2018 08:00:00 19,8 19,7 8 4 ESE 1014,5 10 0
20.07.2018 07:00:00 19,0 19,0 8 4 E - 10 -
20.07.2018 06:00:00 19,0 19,0 4 2 E - 10 -
20.07.2018 05:00:00 19,6 19,6 5 3 E 1014,4 10 -
20.07.2018 04:00:00 20,0 20,0 5 3 S - 10 -
20.07.2018 03:00:00 20,0 20,0 8 4 ESE - 8 -
20.07.2018 02:00:00 20,0 20,0 5 3 ESE 1014,6 10 -
20.07.2018 01:00:00 20,0 20,0 8 4 SE - 10 -
20.07.2018 00:00:00 21,0 21,0 2 1 SE - 10 -
19.07.2018 23:00:00 22,8 22,0 5 3 WSW 1014,1 10 -
19.07.2018 22:00:00 23,0 22,0 2 1 SW - 10 -
19.07.2018 21:00:00 25,0 23,0 8 4 WSW - 10 -
19.07.2018 20:00:00 26,6 21,4 11 6 W 1013,8 10 60
19.07.2018 19:00:00 27,0 21,0 15 8 W - 10 -
19.07.2018 18:00:00 28,0 19,0 18 10 W - 10 -
19.07.2018 17:00:00 29,0 15,9 18 10 W 1014,3 10 60
19.07.2018 16:00:00 30,0 16,0 21 11 W - 10 -
19.07.2018 15:00:00 30,0 16,0 15 8 WNW - 10 -
19.07.2018 14:00:00 29,0 17,5 15 8 W 1014,6 10 60
19.07.2018 13:00:00 29,0 18,0 11 6 WSW - 10 -
19.07.2018 12:00:00 28,0 20,0 9 5 W - 10 -
19.07.2018 11:00:00 26,6 19,2 8 4 SW 1014,4 10 60
19.07.2018 10:00:00 26,0 18,0 5 3 SE - 10 -
19.07.2018 09:00:00 23,0 18,0 9 5 ESE - 10 -
19.07.2018 08:00:00 19,0 18,8 5 3 - 1014,5 10 60
19.07.2018 07:00:00 18,0 18,0 8 4 ESE - 10 -
19.07.2018 06:00:00 18,0 18,0 4 2 SE - 10 -
19.07.2018 05:00:00 18,0 18,0 4 2 ESE 1014,8 10 -
19.07.2018 04:00:00 18,0 18,0 4 2 ESE - 10 -
19.07.2018 03:00:00 18,0 18,0 4 2 ESE - 10 -
19.07.2018 02:00:00 19,2 19,2 5 3 ESE 1014,8 10 -
19.07.2018 01:00:00 20,0 20,0 4 2 ESE - 10 -
19.07.2018 00:00:00 20,0 20,0 4 2 E - 10 -
18.07.2018 23:00:00 23,0 22,5 4 2 WNW 1014,0 10 -
18.07.2018 22:00:00 24,0 23,0 5 3 WNW - 10 -
18.07.2018 21:00:00 24,0 23,0 5 3 W - 10 -
18.07.2018 20:00:00 26,2 21,9 8 4 WNW 1013,9 10 60
18.07.2018 19:00:00 27,0 22,0 11 6 W - 10 -
18.07.2018 18:00:00 27,0 22,0 16 9 W - 10 -
18.07.2018 17:00:00 28,0 20,0 16 9 W 1014,8 10 60
18.07.2018 16:00:00 28,0 21,0 21 11 W - 10 -
18.07.2018 15:00:00 28,0 21,0 18 10 W - 10 -
18.07.2018 14:00:00 27,8 20,9 18 10 W 1015,6 10 60
18.07.2018 13:00:00 28,0 21,0 15 8 W - 10 -
18.07.2018 12:00:00 27,0 21,0 18 10 W - 10 -
18.07.2018 11:00:00 25,4 20,9 9 5 WNW 1015,6 10 42
18.07.2018 10:00:00 25,0 21,0 8 4 NW - 10 -
18.07.2018 09:00:00 23,0 20,0 9 5 E - 10 -
18.07.2018 08:00:00 20,6 19,9 9 5 ESE 1015,0 10 0
18.07.2018 07:00:00 20,0 19,0 8 4 SE - 10 -
18.07.2018 06:00:00 18,0 17,0 5 3 ESE - 10 -
18.07.2018 05:00:00 18,6 18,0 5 3 ESE 1014,5 10 -
18.07.2018 04:00:00 19,0 18,0 5 3 E - 10 -
18.07.2018 03:00:00 19,0 19,0 8 4 SSE - 10 -
18.07.2018 02:00:00 20,0 19,4 5 3 E 1014,6 10 -
18.07.2018 01:00:00 20,0 19,0 4 2 ESE - 10 -
18.07.2018 00:00:00 20,0 19,0 4 2 SSW - 10 -
17.07.2018 23:00:00 22,0 21,3 2 1 - 1013,9 10 -
17.07.2018 22:00:00 23,0 22,0 5 3 WNW - 10 -
17.07.2018 21:00:00 24,0 22,0 5 3 NW - 10 -
17.07.2018 20:00:00 25,8 20,6 13 7 W 1012,7 10 60
17.07.2018 19:00:00 26,0 20,0 13 7 WNW - 10 -
17.07.2018 18:00:00 26,0 19,0 15 8 W - 10 -
17.07.2018 17:00:00 26,4 21,2 13 7 WSW 1012,7 10 60
17.07.2018 16:00:00 27,0 22,0 13 7 W - 10 -
17.07.2018 15:00:00 27,0 21,0 21 11 W - 10 -
17.07.2018 14:00:00 27,0 19,9 21 11 W 1012,6 10 60
17.07.2018 13:00:00 27,0 20,0 15 8 W - 10 -
17.07.2018 12:00:00 26,0 21,0 15 8 WNW - 10 -
17.07.2018 11:00:00 24,0 19,7 11 6 NW 1011,8 10 60
17.07.2018 10:00:00 24,0 20,0 4 2 W - 10 -
17.07.2018 09:00:00 22,0 19,0 4 2 S - 10 -
17.07.2018 08:00:00 18,8 18,8 4 2 E 1010,8 10 36
17.07.2018 07:00:00 19,0 19,0 4 2 ENE - 10 -
17.07.2018 06:00:00 18,0 18,0 2 1 NW - 10 -
17.07.2018 05:00:00 18,0 17,8 4 2 NE 1009,5 10 -
17.07.2018 04:00:00 18,0 18,0 11 6 ESE - 10 -
17.07.2018 03:00:00 19,0 19,0 9 5 SE - 10 -
17.07.2018 02:00:00 19,0 19,0 13 7 E 1009,1 10 -
17.07.2018 01:00:00 20,0 20,0 9 5 NE - 10 -
17.07.2018 00:00:00 20,0 20,0 9 5 SE - 10 -
16.07.2018 23:00:00 22,0 22,0 18 10 NW 1008,8 8 -
16.07.2018 22:00:00 24,0 19,0 8 4 SSE - 10 -
16.07.2018 21:00:00 25,0 19,0 9 5 SSE - 10 -
16.07.2018 20:00:00 28,0 19,3 8 4 SSE 1008,9 10 0
16.07.2018 19:00:00 28,0 18,0 9 5 SSE - 10 -
16.07.2018 18:00:00 28,0 18,0 15 8 SE - 10 -
16.07.2018 17:00:00 28,6 17,8 9 5 E 1010,3 10 0
16.07.2018 16:00:00 29,0 18,0 13 7 E - 10 -
16.07.2018 15:00:00 28,0 18,0 13 7 ESE - 10 -
16.07.2018 14:00:00 27,0 20,1 13 7 E 1012,2 10 0

tt = Température de l'air
td = dewpoint
ff = Vitesse du vent
dd = Direction du vent
ppp = reduced air pressure
vv = visibility
sd = Ensoleillement

stations d'obs. à proximité